Flag for Russia Weather past 2 weeks in Chelyabinsk, Russia

Now
7 °F

Ice fog.


Feels Like: 7 °F
Forecast: -2 / 19 °F
Wind: No wind

Location: Chelyabinsk-Balandino

Current Time: Mar 4, 2015 at 6:10:02 AM

Latest Report: Mar 4, 2015 at 5:30 AM


Visibility: 2 mi

Pressure: 30.27 "Hg

Humidity: 85%

Dew point: 3 °F

Location of ChelyabinskLocation

Historic Weather in Chelyabinsk — Graph

°F

Chelyabinsk temperature yesterday

Maximum temperature yesterday: 27 °F (at 2:30 PM)
Minimum temperature yesterday: 3 °F (at 8:00 AM)
Average temperature yesterday: 15 °F

Past Weeks' High & Low Weather Summary

 TemperatureHumidityPressure
High43 °F (Feb 27, 3:30 PM)85% (Mar 2, 1:30 AM)30.57 "Hg (Mar 2, 1:30 AM)
Low-8 °F (Feb 19, 9:00 AM)21% (Feb 18, 9:30 PM)29.74 "Hg (Feb 21, 6:00 AM)
Average21 °F61%30.29 "Hg
* Reported Feb 17 5:00 AM — Mar 4 5:00 AM, Chelyabinsk, Weather by CustomWeather, © 2015

Note: Actual official high and low records may vary slightly from our data, if they occured in-between our weather recording intervals... More about our weather records

Advertising

Chelyabinsk weather history for previous 24 hours

 ConditionsComfort  
Time TempWeatherWind HumidityBarometerVisibility
5:00 AM
Wed, Mar 4
7 °FIce fog.No wind78%30.27 "Hg2 mi
4:30 AM9 °FIce fog.No wind78%30.27 "Hg2 mi
4:00 AM7 °FIce fog.No wind78%30.27 "Hg2 mi
3:30 AM5 °FIce fog.1 mph85%30.27 "Hg2 mi
3:00 AM7 °FIce fog.1 mph78%30.27 "Hg2 mi
2:30 AM9 °FIce fog.3 mph85%30.27 "Hg3 mi
2:00 AM10 °FIce fog.1 mph79%30.27 "Hg3 mi
1:30 AM10 °FPassing clouds.No wind79%30.27 "Hg4 mi
12:30 AM12 °FClear.3 mph79%30.30 "Hg10 mi
12:00 AM12 °FClear.3 mph79%30.30 "Hg10 mi
11:30 PM
Tue, Mar 3
12 °FClear.6 mph79%30.30 "Hg10 mi
11:00 PM14 °FClear.6 mph79%30.30 "Hg10 mi
10:30 PM16 °FClear.6 mph73%30.30 "Hg10 mi
10:00 PM16 °FClear.6 mph73%30.30 "Hg10 mi
9:30 PM16 °FClear.3 mph73%30.30 "Hg10 mi
8:30 PM18 °FSunny.6 mph73%30.30 "Hg10 mi
8:00 PM19 °FSunny.6 mph73%30.30 "Hg10 mi
7:30 PM19 °FSunny.8 mph73%30.30 "Hg10 mi
7:00 PM21 °FSunny.8 mph68%30.30 "Hg10 mi
6:30 PM23 °FSunny.8 mph68%30.30 "Hg10 mi
6:00 PM25 °FScattered clouds.6 mph69%30.30 "Hg4 mi
5:30 PM27 °FScattered clouds.6 mph64%30.30 "Hg4 mi
5:00 PM27 °FPassing clouds.8 mph69%30.30 "Hg4 mi
4:30 PM27 °FPassing clouds.8 mph69%30.30 "Hg4 mi
4:00 PM27 °FPassing clouds.8 mph69%30.30 "Hg0 mi
3:30 PM27 °FPassing clouds.8 mph69%30.33 "Hg4 mi
3:00 PM27 °FPassing clouds.8 mph69%30.33 "Hg4 mi
2:30 PM27 °FPassing clouds.8 mph64%30.33 "Hg4 mi
2:00 PM25 °FPassing clouds.8 mph69%30.33 "Hg4 mi
1:30 PM25 °FPassing clouds.8 mph69%30.33 "Hg4 mi
1:00 PM23 °FPassing clouds.8 mph74%30.33 "Hg4 mi
12:30 PM23 °FPassing clouds.10 mph74%30.33 "Hg3 mi
12:00 PM19 °FScattered clouds.8 mph79%30.33 "Hg2 mi
11:30 AM19 °FScattered clouds.6 mph79%30.33 "Hg2 mi
11:00 AM16 °FIce fog.6 mph79%30.33 "Hg2 mi
10:30 AM12 °FIce fog.3 mph85%30.33 "Hg2 mi
10:00 AM10 °FIce fog.3 mph79%30.33 "Hg2 mi
9:30 AM9 °FIce fog.3 mph78%30.33 "Hg2 mi
9:00 AM7 °FIce fog.No wind85%30.33 "Hg2 mi
8:30 AM5 °FIce fog.1 mph85%30.33 "Hg2 mi
8:00 AM3 °FIce fog.No wind78%30.33 "Hg2 mi
7:30 AM5 °FIce fog.No wind78%30.33 "Hg2 mi
7:00 AM5 °FIce fog.No wind78%30.33 "Hg2 mi
6:30 AM5 °FIce fog.No wind85%30.33 "Hg2 mi
6:00 AM5 °FIce fog.1 mph78%30.33 "Hg2 mi
Weather by CustomWeather, © 2015

See weather overviewHow to use our weather pages